Simultaneous Nadir Overpasses (SNOs) Predictions

Prediction of SNOs between GOES-14 and AQUA Satellite Orbit:

Table of predicted SNOs for the next 14.0 days since TLE Epoch: 8/15/2025
Index Date Time (GOES-14) GOES-14 Lat,Lon AQUA Lat,Lon Distance(km) Time Diff (sec)
1 08/16/2025 09:56:41 -0.89,-108.07 -1.09,-107.18 102.08 80
2 08/16/2025 22:18:36 0.88,-108.06 0.08,-111.83 428.15 80
3 08/18/2025 21:58:06 0.90,-108.08 1.15,-106.80 144.72 80
4 08/19/2025 10:17:13 -0.88,-108.11 -0.19,-111.43 377.27 80
5 08/21/2025 09:54:03 -0.90,-108.12 -1.29,-106.41 195.54 80
6 08/21/2025 22:15:57 0.88,-108.11 0.24,-111.05 334.87 80
7 08/23/2025 21:52:47 0.90,-108.14 1.37,-106.04 239.36 80
8 08/24/2025 10:14:33 -0.87,-108.17 -0.37,-110.65 281.45 80
9 08/26/2025 09:51:22 -0.89,-108.19 -1.47,-105.63 292.77 80
10 08/26/2025 22:13:15 0.86,-108.17 0.44,-110.27 237.75 80
11 08/28/2025 21:50:03 0.88,-108.20 1.51,-105.24 336.97 80
12 08/29/2025 10:11:49 -0.85,-108.24 -0.52,-109.85 183.06 80
